Regional Weather Roundup
Issued by NWS

Home | Current Version | Previous Version | Graphics & Text | Print | Product List | Glossary On
Versions: 1 2 3 4 5 6 7 8 9 10 11 12 13 14 15 16 17 18 19 20 21 22 23 24 25 26 27 28 29 30 31 32 33 34 35 36 37 38 39 40 41 42 43 44 45 46 47 48 49 50
000
ASUS43 KLOT 170212
RWRIL

ILLINOIS REGIONAL WEATHER ROUNDUP
NATIONAL WEATHER SERVICE CHICAGO/ROMEOVILLE IL
800 PM CST MON JAN 16 2017

NOTE: "FAIR" INDICATES FEW OR NO CLOUDS BELOW 12,000 FEET WITH NO
SIGNIFICANT WEATHER AND/OR OBSTRUCTIONS TO VISIBILITY.

* THESE STATIONS ARE NOT UNDER NWS QUALITY CONTROL. THEY ALSO MAY NOT
  REPORT WEATHER SUCH AS PRECIPITATION OR FOG.

ILZ001-002-007-009-015-016-024-170300-
NORTHWEST ILLINOIS

CITY           SKY/WX    TMP DP  RH WIND       PRES   REMARKS
MOLINE         CLOUDY    37  35  92 NE5       29.88F FOG     WCI  33
STERLING*      CLOUDY    35  35 100 E9        29.91F WCI  28
SAVANNA*       DRIZZLE   36  35  98 E5        29.91F WCI  32
$$

ILZ003-004-008-010-011-017-018-170300-
NORTH CENTRAL ILLINOIS

CITY           SKY/WX    TMP DP  RH WIND       PRES   REMARKS
ROCKFORD       CLOUDY    37  34  89 E9        29.93F FOG     WCI  30
FREEPORT*      CLOUDY    34  34  99 E8        29.94S WCI  27
ROCHELLE*      CLOUDY    35  35  99 E9        29.94F WCI  28
DE KALB*       CLOUDY    36  36  99 NE8       29.94F FOG     WCI  30
$$

ILZ005-006-012>014-019>023-170300-
NORTHEAST ILLINOIS

CITY           SKY/WX    TMP DP  RH WIND       PRES   REMARKS
CHICAGO-OHARE  LGT RAIN  36  36 100 E5        29.96F FOG     WCI  32
CHICAGO-MIDWAY LGT RAIN  36  35  96 E6        29.97F FOG     WCI  31
AURORA         MIX PCPN  37  36  96 E8        29.94F FOG     WCI  31
LANSING*       CLOUDY    38  38 100 SE6       29.97F FOG     WCI  33
JOLIET*        RAIN      40  40 100 E5        29.96F VSB 3/4
WAUKEGAN       LGT RAIN  36  35  96 E9        29.99F FOG     WCI  29
DUPAGE AIRPORT LGT RAIN  37  35  92 N6        29.96F FOG     WCI  32
KANKAKEE*      RAIN      40  39  99 E12       29.94F
WHEELING       HVY RAIN  36  35  96 E7        29.98F FOG     WCI  30
MORRIS*        LGT RAIN  37  37  98 E6        29.94F WCI  33
ROMEOVILLE*    RAIN      37  37 100 E3        29.96F
NORTHERLY ISL    N/A     34  33  96 NE7         N/A  WCI  28
$$

LMZ740>746-170300-
SOUTHERN LAKE MICHIGAN

STATION/POSITION SKY/WX   TEMP    WIND        PRES    VSBY  WAVE
                          AIR SEA DIR/SP/G                  HT/PER
                          (F)     (DEG/KT/KT) (MB)    (MI)  (FT/S)
HARRISON CRIB              36      90/ 14/ 15   N/A
BURNHAM HARBOR             34      60/  5/  8   N/A
CALUMET HARBOR             34      50/  5/ 11 1014.4F
BURNS HARBOR               41     140/  6/ 12 1015.9F
MICHIGAN CITY              39     110/ 14/ 16   N/A
$$

ILZ025>027-034>036-040-047-049-050-058-095>099-170300-
WEST-CENTRAL ILLINOIS

CITY           SKY/WX    TMP DP  RH WIND       PRES   REMARKS
QUINCY         FOG       45  45 100 SE8       29.83F VSB 1/4
GALESBURG*     FOG       39  39 100 E5        29.88F VSB 1/2
MACOMB*        FOG       37  37 100 E3        29.88F VSB 1/4
JACKSONVILLE*  FOG       46  46  99 SE7       29.87F VSB 1/4
PITTSFIELD*    FOG       49  49 100 E8        29.85F VSB 1/4
$$

ILZ028>032-037-038-041>044-048-051>054-059>061-170300-
CENTRAL ILLINOIS

CITY           SKY/WX    TMP DP  RH WIND       PRES   REMARKS
PONTIAC        LGT SNOW  37  37 100 E6        29.94F VSB 3/4 WCI  33
BLOOMINGTON    LGT RAIN  45  44  97 S8        29.92F VSB 1/2
DECATUR        LGT RAIN  52  52 100 S15       29.92F FOG
PEORIA         FOG       42  42 100 E5        29.90F VSB 1/8
LACON*         CLOUDY    37  37 100 E3        29.90F FOG
LINCOLN*       FOG       47  47 100 SE3       29.91F VSB 1/4
SPRINGFIELD    CLOUDY    51  50  96 SE8       29.89F FOG
TAYLORVILLE    RAIN      51  51  99 SE6       29.92F
$$

ILZ033-039-045-046-055>057-062-063-170300-
EAST-CENTRAL ILLINOIS

CITY           SKY/WX    TMP DP  RH WIND       PRES   REMARKS
CHAMPAIGN      LGT RAIN  51  50  96 S20G26    29.93F FOG
RANTOUL*       RAIN      48  48  99 SE13      29.93F VSB 1/2
MATTOON        LGT RAIN  53  52  96 S18G25    29.93S FOG
PARIS*         CLOUDY    51  51 100 SE18      29.97F
$$

ILZ079-100>102-170300-
SOUTHWEST ILLINOIS

CITY           SKY/WX    TMP DP  RH WIND       PRES   REMARKS
ALTON          CLOUDY    52  52 100 CALM      29.89F FOG
BELLEVILLE     RAIN      56  56 100 SE5       29.89S FOG
CAHOKIA*       CLOUDY    56  54  93 SE7       29.89F FOG
SPARTA*        CLOUDY    59  58  96 S10G16    29.92F THUNDER
$$

ILZ064>066-069>071-074>076-080>082-084>086-088>090-092>094-170300-
SOUTH-CENTRAL ILLINOIS

CITY           SKY/WX    TMP DP  RH WIND       PRES   REMARKS
CARBONDALE     CLOUDY    60  59  96 S17       29.92F
CAIRO*         DRIZZLE   61  59  95 S15       29.95F
EFFINGHAM*     RAIN      55  55 100 SE9       29.97S
MARION         TSTM      61  61 100 S15G24    29.94S
MT. VERNON     LGT RAIN  57  55  93 SE6       29.94F
CENTRALIA*     TSTM      57  56  99 SE17G23   29.89F
SALEM*         TSTM      56  55  94 SE13      29.92F
METROPOLIS*    CLOUDY    61  59  94 CALM      29.99S
$$

ILZ067-068-072-073-078-083-087-091-170300-
SOUTHEAST ILLINOIS

CITY           SKY/WX    TMP DP  RH WIND       PRES   REMARKS
LAWRENCEVILLE  LGT RAIN  54  54 100 SW7       30.02R FOG
FLORA*         TSTM      57  55  95 S7        29.97R
FAIRFIELD*     CLOUDY    55  55  98 CALM      29.95F THUNDER
HARRISBURG*    CLOUDY    59  56  90 S14       29.95F
ROBINSON*      RAIN      52  52  99 S6        30.01R
CARMI*         CLOUDY    54  54 100 E7        29.96F THUNDER
$$

ABBREVIATIONS USED IN REMARKS
   TC - TEMPERATURE IN CELSIUS
  WCI - WIND CHILL INDEX
   HX - HEAT INDEX
  VSB - VISIBILITY
$$





USA.gov is the U.S. government's official web portal to all federal, state and local government web resources and services.